Retour au catalogue

STARLINK-36730

ActifCommunicationsVLEO
NORAD 67874·PAYLOAD·🇺🇸 United States

Lancé Feb 20, 2026 depuis Vandenberg Space Force Base

Loading…

Prochains Passages (prochaines 24 heures)

TLE

FraisSource: CelesTrak SupGP

Époque: Sep 15, 2026, 02:52 UTC

1 67874C 26034AA  26258.11993056 -.00005313  00000+0 -15701-3 0  2582
2 67874  53.1595  39.1404 0001162  90.4316 202.7124 15.34385268    10

Suivez STARLINK-36730 en temps réel avec AllMySat

Download on the App Store